EHI
0 0 0 0 0 0 0 0 0 0 0 0 0 0 0 0 0 0 0 0 0 0 0 0 0 0 0 0 0 0 0 0 0 0 0 0 0 0 0 0 0 0 0
0 0 0 0 0 0 0 0 0 0 0 0 0 0 0 0 0 0 0 0 0 0 0 0 0 0 0 0 0 0 0 0 0 0 0 0 0 0 0 0 0 0 0
0 0 0 0 0 0 0 0 0 0 0 0 0 0 0 0 0 0 0 0 0 0 0 0 0 0 0 0 0 0 0 0 0 0 0 0 0 0 0 0 0 0 0
0 0 0 0 0 0 0 0 0 0 0 0 0 0 0 0 0 0 0 0 0 0 0 0 0 0 0 0 0 0 0 0 0 0 0 0 0 0 0 0 0 0 0
0 0 0 0 0 0 0 0 0 0 0 0 0 0 0 0 0 0 0 0 0 0 0 0 0 0 0 0 0 0 0 0 0 0 0 0 0 0 0 0 0 0 0
0 0 0 0 0 0 0 0 0 0 0 0 0 0 0 0 0 0 0 0 0 0 0 0 0 0 0 0 0 0 0 0 0 0 0 0 0 0 0 0 0 0 0
0 0 0 0 0 0 0 0 0 0 0 0 0 0 0 0 0 0 0 0 0 0 0 0 0 0 0 0 0 0 0 0 0 0 0 0 0 0 0 0 0 0 0
0 0 0 0 0 0 0 0 0 0 0 0 0 0 0 0 0 0 0 0 0 0 0 0 0 0 0 0 0 0 0 0 0 0 0 0 0 0 0 0 0 0 0
0 0 0 0 0 0 0 0 0 0 0 0 0 0 0 0 0 0 0 0 0 0 0 0 0 0 0 0 0 0 0 0 0 0 0 0 0 0 0 0 0 0 0
0 0 0 0 0 0 0 0 0 0 0 0 0 0 0 0 0 0 0 0 0 0 0 0 0 0 0 0 0 0 0 0 0 0 0 0 0 0 0 0 0 0 0
0 0 0 0 0 0 0 0 0 0 0 0 0 0 0 0 0 0 0 0 0 0 0 0 0 0 0 0 0 0 0 0 0 0 0 0 0 0 0 0 0 0 0
0 0 0 0 0 0 0 0 0 0 0 0 0 0 0 0 0 0 0 0 0 0 0 0 0 0 0 0 0 0 0 0 0 0 0 0 0 0 0 0 0 0 0
0 0 0 0 0 0 0 0 0 0 0 0 0 0 0 0 0 0 0 0 0 0 0 0 0 0 0 0 0 0 0 0 0 0 0 0 0 0 0 0 0 0 0
0 0 0 0 0 0 0 0 0 0 0 0 0 0 0 0 0 0 0 0 0 0 0 0 0 0 0 0 0 0 0 0 0 0 0 0 0 0 0 0 0 0 0
0 0 0 0 0 0 0 0 0 0 0 0 0 0 0 0 0 0 0 0 0 0 0 0 0 0 0 0 0 0 0 0 0 0 0 0 0 0 0 0 0 0 0
0 0 0 0 0 0 0 0 0 0 0 0 0 0 0 0 0 0 0 0 0 0 0 0 0 0 0 0 0 0 0 0 0 0 0 0 0 0 0 0 0 0 0
0 0 0 0 0 0 0 0 0 0 0 0 0 0 0 0 0 0 0 0 0 0 0 0 0 0 0 0 0 0 0 0 0 0 0 0 0 0 0 0 0 0 0
0 0 0 0 0 0 0 0 0 0 0 0 0 0 0 0 0 0 0 0 0 0 0 0 0 0 0 0 0 0 0 0 0 0 0 0 0 0 0 0 0 0 0
0 0 0 0 0 0 0 0 0 0 0 0 0 0 0 0 0 0 0 0 0 0 0 0 0 0 0 0 0 0 0 0 0 0 0 0 0 0 0 0 0 0 0
0 0 0 0 0 0 0 0 0 0 0 0 0 0 0 0 0 0 0 0 0 0 0 0 0 0 0 0 0 0 0 0 0 0 0 0 0 0 0 0 0 0 0
0 0 0 0 0 0 0 0 0 0 0 0 0 0 0 0 0 0 0 0 0 0 0 0 0 0 0 0 0 0 0 0 0 0 0 0 0 0 0 0 0 0 0
0 0 0 0 0 0 0 0 0 0 0 0 0 0 0 0 0 0 0 0 0 0 0 0 0 0 0 0 0 0 0 0 0 0 0 0 0 0 0 0 0 0 0
0 0 0 0 0 0 0 0 0 0 0 0 0 0 0 0 0 0 0 0 0 0 0 0 0 0 0 0 0 0 0 0 0 0 0 0 0 0 0 0 0 0 0
0 0 0 0 0 0 0 0 0 0 0 0 0 0 0 0 0 0 0 0 0 0 0 0 0 0 0 0 0 0 0 0 0 0 0 0 0 0 0 0 0 0 0
0 0 0 0 0 0 0 0 0 0 0 0 0 0 0 0 0 0 0 0 0 0 0 0 0 0 0 0 0 0 0 0 0 0 0 0 0 0 0 0 0 0 0
0 0 0 0 0 0 0 0 0 0 0 0 0 0 0 0 0 0 0 0 0 0 0 0 0 0 0 0 0 0 0 0 0 0 0 0 0 0 0 0 0 0 0
Wind_Speed
5 5 3 3 3 3 3 3 3 4 4 4 4 3 3 2 1 2 5 11 11 11 12 12 12 13 13 12 12 11 12 12 13 13 14 14 14 14 14 14 15 15 15
6 5 5 4 4 3 3 3 4 3 3 3 3 3 2 1 1 2 4 7 12 12 12 13 13 13 13 13 13 13 13 13 14 14 15 15 15 15 16 16 16 17 17
8 6 6 5 5 4 5 4 4 3 3 2 2 2 2 1 2 3 3 3 5 9 11 12 13 13 13 13 14 14 14 15 15 16 16 16 16 16 17 17 18 18 18
9 7 6 6 5 5 4 3 2 2 2 3 3 2 2 2 4 3 3 3 2 3 6 9 10 12 12 13 14 15 15 16 17 17 17 18 18 17 18 18 19 20 20
10 8 6 6 6 4 4 4 3 3 4 4 4 3 3 2 3 4 3 2 2 2 3 4 7 9 12 13 14 16 17 17 18 18 19 19 19 19 19 19 20 21 21
10 9 7 7 6 5 4 4 5 4 4 4 5 3 1 1 3 3 2 2 1 2 4 6 7 8 11 13 15 16 16 18 19 19 20 20 20 20 21 21 22 22 23
10 9 7 7 6 5 5 5 4 4 4 5 4 2 1 2 3 3 2 3 3 4 5 7 8 8 7 13 13 14 17 18 19 20 21 21 22 22 23 23 24 24 25
10 8 9 7 7 6 6 5 4 2 3 4 4 4 3 2 2 2 3 4 5 5 6 9 10 10 9 8 10 15 16 18 20 22 22 23 23 24 25 25 26 27 27
9 8 9 8 7 6 6 5 4 3 2 3 4 4 3 3 5 4 5 5 5 6 7 9 10 11 11 8 9 11 16 19 21 22 24 25 26 27 27 28 29 29 29
9 9 9 9 8 6 7 5 4 3 2 2 1 2 3 4 5 5 4 5 6 8 9 8 10 11 10 8 10 15 16 18 22 24 26 27 28 28 29 30 30 30 30
9 9 9 8 8 6 7 6 4 3 1 1 2 2 3 3 5 5 8 8 7 7 7 9 10 9 9 9 9 12 17 21 24 26 27 27 28 29 30 31 31 31 31
8 9 9 8 8 7 6 5 4 3 1 1 2 3 4 4 5 6 8 10 11 9 10 9 8 8 8 10 12 16 20 24 26 27 27 29 30 30 31 32 32 32 32
8 10 8 8 7 7 6 5 3 2 1 2 3 3 4 5 5 7 9 11 13 11 10 7 7 8 8 9 10 18 21 26 27 28 29 31 31 31 31 32 32 32 32
9 10 9 8 8 7 5 4 2 1 1 3 4 5 5 5 5 6 8 10 12 10 9 12 9 8 7 9 13 21 18 24 26 28 30 32 32 32 32 32 32 32 32
10 11 9 8 7 6 4 3 1 1 2 4 4 5 5 5 5 6 7 8 10 13 14 11 8 8 10 11 15 15 17 23 27 29 31 31 32 32 32 33 33 33 33
11 11 9 8 7 5 4 2 1 1 4 4 4 6 6 5 6 7 7 8 9 13 15 10 12 13 14 13 18 18 18 25 27 28 29 30 31 32 33 33 33 33 33
11 10 9 7 6 4 2 1 1 3 5 5 5 6 7 8 7 7 8 9 10 11 16 15 12 14 17 18 16 16 16 17 16 26 29 30 32 32 32 33 33 33 33
10 9 8 6 5 3 1 1 2 4 5 6 7 7 8 7 10 9 8 10 10 12 15 19 15 14 18 18 18 18 16 15 16 23 29 30 31 32 32 32 33 33 33
10 8 7 5 4 2 0 2 4 5 6 7 7 8 9 10 11 9 11 11 10 11 13 16 17 15 14 14 17 17 18 16 16 18 24 27 28 30 32 32 33 33 32
9 8 6 5 3 1 1 3 5 7 7 8 8 8 9 10 11 12 11 12 12 14 14 14 15 15 15 16 15 15 15 14 14 15 19 21 25 28 29 31 31 31 31
8 7 5 4 2 0 2 5 7 7 8 9 9 9 10 12 15 14 12 13 14 13 13 14 14 15 15 15 15 14 15 16 16 14 16 15 15 15 18 22 26 28 29
7 6 4 3 0 1 4 8 9 9 8 9 10 10 11 12 14 18 20 20 20 18 16 15 14 16 19 18 16 15 16 17 17 13 15 17 15 16 15 15 22 29 30
6 5 3 1 2 2 6 9 10 10 9 9 10 11 10 10 15 13 17 21 20 23 22 18 18 18 19 18 18 19 18 18 18 16 16 19 16 17 15 16 27 30 31
5 3 2 1 3 3 6 10 12 10 9 10 11 12 13 13 13 16 17 17 16 16 18 15 15 17 18 18 18 18 19 19 18 15 15 17 17 16 15 15 24 29 29
4 2 0 2 4 4 6 10 12 9 8 10 11 12 13 14 17 21 18 17 17 15 16 19 22 23 26 27 21 14 14 14 16 15 13 12 13 15 16 15 16 21 24
2 1 1 2 4 5 7 10 12 8 9 9 10 12 15 16 20 23 18 17 17 16 15 16 17 18 17 18 20 14 11 12 14 12 9 9 12 12 12 10 10 13 16
Wind_Direction
169 154 134 120 109 107 116 99 82 70 54 43 33 14 12 19 63 100 87 57 57 58 49 39 30 21 13 6 0 357 352 348 344 339 335 331 328 325 321 318 314 311 307
160 145 135 126 114 104 91 89 78 68 53 36 25 17 4 8 128 130 111 85 63 55 49 39 28 17 5 356 348 342 339 335 331 327 323 319 317 315 313 310 307 304 301
156 145 138 128 118 113 108 95 83 61 47 23 11 7 348 302 195 150 124 99 86 65 51 37 24 11 359 348 339 333 329 325 322 318 314 311 308 306 305 304 302 299 296
149 140 133 121 120 116 110 98 81 59 32 356 341 346 308 242 210 167 146 115 76 59 58 33 12 2 351 340 331 325 322 318 314 311 308 305 302 299 298 297 297 296 293
144 134 124 123 127 120 113 100 68 36 20 358 335 327 321 245 193 192 173 135 90 24 357 7 346 344 339 332 325 321 317 313 310 307 304 300 297 295 295 294 292 291 289
135 125 122 130 131 126 119 108 90 59 24 348 324 328 355 208 203 196 204 203 216 301 324 336 331 332 327 323 321 319 317 314 311 307 303 299 296 295 293 291 290 288 286
132 127 127 133 135 122 116 107 96 70 36 353 327 324 188 179 205 198 242 261 253 282 301 326 331 326 318 319 317 318 317 315 312 308 305 300 296 294 292 290 289 287 285
129 130 134 134 128 120 112 99 91 79 53 15 349 328 319 215 175 220 274 266 280 288 306 321 321 316 313 311 310 312 314 314 313 309 304 300 297 294 292 290 288 287 284
125 130 131 130 127 121 111 101 90 74 65 49 12 348 326 317 315 277 275 285 293 299 308 313 308 310 307 302 305 310 313 313 310 307 305 304 300 296 292 290 287 285 283
125 128 128 126 122 117 116 108 95 83 38 31 42 353 320 315 295 300 272 266 282 293 295 297 303 302 296 299 300 300 304 308 309 307 304 300 297 295 292 289 287 286 284
125 129 129 125 121 116 115 115 111 97 52 349 328 309 289 274 268 281 294 301 296 289 294 295 293 291 294 299 301 301 307 308 307 304 301 299 297 296 294 292 290 288 287
131 131 130 126 124 121 123 123 121 123 115 301 292 288 295 294 296 286 290 299 302 303 300 291 286 288 297 303 301 307 308 307 305 303 301 300 298 297 296 295 293 291 289
142 141 137 133 126 125 128 132 136 147 201 269 281 287 284 282 289 284 286 295 297 298 291 280 272 281 292 297 300 307 305 301 300 300 300 299 299 299 298 296 293 291 289
138 138 135 131 130 132 135 141 152 179 250 270 278 284 284 281 281 281 288 298 299 293 288 293 302 297 296 293 293 299 294 294 295 296 296 297 297 297 296 294 292 290 288
133 136 135 133 134 135 138 154 181 224 267 277 286 284 283 286 284 283 283 285 291 297 300 302 297 300 298 296 295 292 292 293 294 294 293 293 294 294 293 292 291 289 287
133 136 136 137 138 139 144 161 224 276 282 290 295 292 294 291 291 286 283 283 281 285 289 294 299 300 303 296 293 292 292 293 291 291 291 292 292 292 292 291 289 288 286
134 135 137 140 140 140 143 187 266 281 291 296 294 295 297 299 295 293 290 285 282 283 287 294 298 302 300 297 297 296 295 293 292 293 294 294 293 292 291 290 288 287 285
130 132 135 136 132 131 147 266 288 291 296 299 301 299 299 301 297 294 291 288 287 287 289 295 299 299 299 300 298 298 298 295 293 294 294 293 292 291 290 288 287 286 284
128 130 133 130 127 126 201 294 296 296 295 294 297 297 299 300 298 297 296 292 290 289 287 291 296 299 298 300 302 300 298 296 296 295 294 292 291 290 289 288 287 286 285
128 129 125 119 116 127 278 294 296 294 293 292 291 291 293 295 297 299 296 293 293 293 293 292 294 298 300 303 303 303 303 301 299 298 293 291 290 291 289 288 286 284 283
122 124 123 119 111 300 314 313 304 297 295 295 292 289 289 292 294 295 295 297 300 297 295 293 295 299 301 306 306 307 304 303 298 298 296 296 296 291 290 287 285 282 281
124 126 121 115 88 332 324 309 311 303 297 294 296 296 296 294 296 299 299 299 296 293 294 295 296 298 301 303 306 304 303 302 302 304 301 298 296 291 289 287 286 286 285
130 128 122 119 306 334 315 315 313 303 298 297 298 299 300 300 303 301 299 297 294 292 290 293 295 295 299 302 302 302 300 299 297 300 299 294 296 293 292 289 291 289 288
129 128 126 320 307 320 320 316 315 303 297 294 297 300 301 303 305 306 304 300 297 296 295 294 291 292 292 294 296 297 297 295 291 289 290 291 295 295 296 294 292 289 286
130 130 170 300 305 316 323 317 321 309 298 300 301 299 300 300 305 308 307 304 303 301 300 297 292 290 291 294 295 294 293 294 295 298 297 287 293 301 297 289 287 289 290
125 148 259 297 306 314 319 319 321 307 307 307 304 302 301 305 309 311 311 308 305 307 307 303 298 296 294 292 293 288 289 291 294 297 294 297 298 308 301 287 291 296 295